contact:dominique.lefevre@mio.osupytheas.fr, maurice.libes@osupytheas.fr, didier.mallarino@osupytheas.fr
Project:EMSO http://www.emso-fr.org/EMSO-France
Depth: 2436.0 m
Title:EMSO Ligure Ouest : Data MII capteur AQUADOPP
Date,Latitude,Longitude,X_East,Y_North,Z_Up,Amplitude_X,Amplitude_Y,Amplitude_Z,Batterie,SoundSpeed,Heading,Pitch,Roll,Pressure,TIS,Speed,Direction
, degrees North, degrees East, m.s-1, m.s-1,m.s-1, 1, 1, 1, Volt, m.s-1, degree, degree, degree, dbar, degree_C, m.s-1, degree
2022-01-01T00:04:03,42.805,6.029,0.011,-0.002,0.01,100.0,101.0,100.0,13.4,1505.2,329.7,-0.8,1.8,2470.694,13.28,0.011,100.3
2022-01-01T00:07:03,42.805,6.029,-0.005,-0.025,-0.02,100.0,101.0,100.0,13.4,1505.2,326.1,-0.8,1.8,2470.655,13.28,0.025,191.3
2022-01-01T00:10:03,42.805,6.029,0.021,-0.041,-0.016,101.0,101.0,100.0,13.4,1505.2,327.4,-0.8,1.8,2470.662,13.28,0.046,152.9
2022-01-01T00:13:03,42.805,6.029,0.043,-0.013,-0.004,100.0,100.0,100.0,13.4,1505.2,326.9,-0.8,1.8,2470.64,13.28,0.044,106.8
2022-01-01T00:16:03,42.805,6.029,0.02,-0.034,0.031,101.0,101.0,100.0,13.3,1505.2,328.1,-0.8,1.8,2470.645,13.28,0.039,149.5
2022-01-01T00:19:03,42.805,6.029,0.024,-0.032,-0.015,102.0,100.0,99.0,13.4,1505.2,331.8,-0.8,1.8,2470.631,13.28,0.04,143.1
2022-01-01T00:22:03,42.805,6.029,0.044,-0.041,-0.026,100.0,101.0,100.0,13.4,1505.2,328.0,-0.7,1.8,2470.631,13.28,0.06,133.0
2022-01-01T00:25:03,42.805,6.029,0.009,-0.033,-0.057,99.0,103.0,100.0,13.3,1505.2,327.7,-0.8,1.8,2470.658,13.28,0.034,164.7
2022-01-01T00:28:03,42.805,6.029,0.028,-0.028,-0.029,100.0,101.0,100.0,13.4,1505.2,329.9,-0.8,1.8,2470.641,13.28,0.039,135.0
2022-01-01T00:31:03,42.805,6.029,0.031,-0.05,-0.023,101.0,100.0,100.0,13.4,1505.2,328.4,-0.7,1.8,2470.617,13.28,0.058,148.2
2022-01-01T00:34:03,42.805,6.029,0.041,-0.029,-0.046,101.0,99.0,100.0,13.4,1505.2,326.8,-0.8,1.8,2470.65,13.28,0.05,125.3
2022-01-01T00:37:03,42.805,6.029,0.002,-0.028,-0.033,101.0,100.0,100.0,13.4,1505.2,331.4,-0.8,1.8,2470.623,13.28,0.028,175.9
2022-01-01T00:40:03,42.805,6.029,0.047,-0.031,-0.049,101.0,101.0,100.0,13.4,1505.2,324.6,-0.7,1.8,2470.643,13.28,0.056,123.4
2022-01-01T00:43:03,42.805,6.029,0.024,-0.034,-0.038,101.0,101.0,100.0,13.3,1505.2,329.5,-0.8,1.8,2470.643,13.28,0.041,144.8
2022-01-01T00:46:03,42.805,6.029,0.04,-0.045,-0.018,101.0,101.0,100.0,13.4,1505.2,331.4,-0.8,1.8,2470.63,13.28,0.06,138.4
2022-01-01T00:49:03,42.805,6.029,0.026,-0.023,-0.026,101.0,101.0,100.0,13.3,1505.2,326.6,-0.8,1.8,2470.63,13.28,0.034,131.5
2022-01-01T00:52:03,42.805,6.029,0.008,-0.04,-0.018,101.0,101.0,100.0,13.4,1505.2,330.5,-0.8,1.8,2470.652,13.28,0.04,168.7
2022-01-01T00:55:03,42.805,6.029,0.032,-0.022,-0.006,101.0,101.0,100.0,13.4,1505.2,324.8,-0.8,1.8,2470.654,13.28,0.038,124.5
2022-01-01T00:58:03,42.805,6.029,0.023,-0.039,-0.013,101.0,100.0,100.0,13.4,1505.2,325.6,-0.8,1.8,2470.625,13.28,0.045,149.5
2022-01-01T01:04:03,42.805,6.029,0.057,-0.04,-0.038,102.0,103.0,101.0,13.4,1505.2,330.9,-0.8,1.8,2470.727,13.28,0.069,125.1
2022-01-01T01:07:03,42.805,6.029,0.049,-0.014,-0.006,101.0,101.0,100.0,13.3,1505.2,323.6,-0.8,1.8,2470.682,13.28,0.05,105.9
2022-01-01T01:10:03,42.805,6.029,0.026,-0.049,-0.034,102.0,101.0,101.0,13.4,1505.2,328.4,-0.7,1.8,2470.626,13.28,0.055,152.1
2022-01-01T01:13:03,42.805,6.029,0.056,-0.021,0.025,100.0,103.0,100.0,13.4,1505.2,329.1,-0.8,1.8,2470.715,13.28,0.059,110.6
2022-01-01T01:16:03,42.805,6.029,0.03,-0.009,0.023,101.0,101.0,100.0,13.4,1505.2,325.9,-0.8,1.8,2470.687,13.28,0.031,106.7
2022-01-01T01:19:03,42.805,6.029,0.012,-0.027,-0.015,102.0,100.0,100.0,13.3,1505.2,327.1,-0.8,1.8,2470.669,13.28,0.029,156.0
2022-01-01T01:22:03,42.805,6.029,0.021,-0.016,-0.032,102.0,99.0,100.0,13.3,1505.2,331.8,-0.8,1.8,2470.647,13.28,0.026,127.3
2022-01-01T01:25:03,42.805,6.029,0.024,-0.027,-0.038,100.0,102.0,100.0,13.4,1505.2,325.9,-0.8,1.8,2470.688,13.28,0.036,138.4
2022-01-01T01:28:03,42.805,6.029,0.011,-0.032,-0.02,100.0,101.0,100.0,13.4,1505.2,328.8,-0.7,1.8,2470.694,13.28,0.033,161.0
2022-01-01T01:31:03,42.805,6.029,0.002,0.015,0.021,100.0,102.0,99.0,13.3,1505.2,330.8,-0.7,1.8,2470.663,13.28,0.015,7.6
2022-01-01T01:34:03,42.805,6.029,0.021,-0.014,-0.018,100.0,101.0,100.0,13.3,1505.2,325.6,-0.7,1.8,2470.693,13.28,0.025,123.7
2022-01-01T01:37:03,42.805,6.029,0.032,-0.018,-0.001,102.0,100.0,100.0,13.4,1505.2,328.8,-0.7,1.8,2470.705,13.28,0.036,119.4
2022-01-01T01:40:03,42.805,6.029,0.027,-0.024,-0.006,101.0,100.0,100.0,13.4,1505.2,330.7,-0.7,1.8,2470.663,13.28,0.036,131.6
2022-01-01T01:43:03,42.805,6.029,0.015,-0.021,0.005,101.0,101.0,100.0,13.4,1505.2,326.8,-0.7,1.8,2470.677,13.28,0.025,144.5
2022-01-01T01:46:03,42.805,6.029,0.042,-0.015,0.026,101.0,101.0,100.0,13.4,1505.2,326.5,-0.8,1.8,2470.716,13.28,0.044,109.6
2022-01-01T01:49:03,42.805,6.029,0.013,-0.019,-0.017,101.0,101.0,99.0,13.3,1505.2,329.9,-0.7,1.8,2470.695,13.28,0.023,145.6
2022-01-01T01:52:03,42.805,6.029,0.056,-0.054,-0.042,101.0,100.0,100.0,13.3,1505.2,329.0,-0.7,1.8,2470.697,13.28,0.077,134.0
2022-01-01T01:55:03,42.805,6.029,0.011,-0.04,-0.031,101.0,101.0,99.0,13.3,1505.2,326.8,-0.7,1.8,2470.681,13.28,0.041,164.6
2022-01-01T01:58:03,42.805,6.029,0.022,-0.023,0.008,100.0,100.0,100.0,13.3,1505.2,326.3,-0.7,1.8,2470.674,13.28,0.031,136.3
2022-01-01T02:04:03,42.805,6.029,0.022,-0.017,-0.022,101.0,101.0,100.0,13.3,1505.2,324.3,-0.8,1.8,2470.761,13.28,0.027,127.7
2022-01-01T02:07:03,42.805,6.029,0.002,0.001,0.007,102.0,99.0,101.0,13.3,1505.2,327.4,-0.7,1.8,2470.669,13.28,0.002,63.4
2022-01-01T02:10:03,42.805,6.029,0.023,-0.009,-0.014,102.0,99.0,101.0,13.4,1505.2,328.9,-0.7,1.9,2470.705,13.28,0.024,111.4
2022-01-01T02:13:03,42.805,6.029,0.01,-0.025,-0.014,100.0,100.0,100.0,13.4,1505.2,326.6,-0.7,1.8,2470.713,13.28,0.026,158.2
2022-01-01T02:16:03,42.805,6.029,0.05,-0.031,-0.01,100.0,99.0,101.0,13.4,1505.2,326.6,-0.8,1.8,2470.69,13.28,0.058,121.8
2022-01-01T02:19:03,42.805,6.029,0.008,-0.02,-0.034,102.0,101.0,100.0,13.4,1505.2,328.8,-0.7,1.8,2470.687,13.28,0.021,158.2
2022-01-01T02:22:03,42.805,6.029,0.027,-0.006,-0.026,102.0,101.0,100.0,13.3,1505.2,328.9,-0.7,1.8,2470.723,13.28,0.027,102.5
2022-01-01T02:25:03,42.805,6.029,0.047,-0.018,-0.01,102.0,100.0,99.0,13.3,1505.2,327.5,-0.7,1.9,2470.729,13.28,0.05,111.0
2022-01-01T02:28:03,42.805,6.029,0.003,-0.014,-0.027,101.0,101.0,100.0,13.4,1505.2,327.6,-0.7,1.8,2470.704,13.28,0.014,167.9
2022-01-01T02:31:03,42.805,6.029,0.022,-0.039,-0.057,101.0,101.0,99.0,13.4,1505.2,329.9,-0.8,1.8,2470.717,13.28,0.044,150.6
2022-01-01T02:34:03,42.805,6.029,0.031,-0.02,-0.016,103.0,98.0,99.0,13.4,1505.2,324.7,-0.8,1.8,2470.695,13.28,0.036,122.8
2022-01-01T02:37:03,42.805,6.029,0.025,-0.039,-0.045,102.0,100.0,100.0,13.3,1505.2,325.7,-0.8,1.8,2470.713,13.28,0.046,147.3
2022-01-01T02:40:03,42.805,6.029,0.023,-0.024,-0.008,101.0,101.0,100.0,13.4,1505.2,330.6,-0.8,1.8,2470.717,13.28,0.033,136.2
2022-01-01T02:43:03,42.805,6.029,0.036,-0.03,-0.036,100.0,101.0,99.0,13.3,1505.2,328.7,-0.8,1.8,2470.734,13.28,0.046,129.8
2022-01-01T02:46:03,42.805,6.029,0.008,-0.014,-0.001,100.0,101.0,100.0,13.3,1505.2,325.5,-0.7,1.8,2470.732,13.28,0.016,150.3
2022-01-01T02:49:03,42.805,6.029,0.027,-0.027,-0.028,102.0,99.0,101.0,13.3,1505.2,330.8,-0.7,1.8,2470.707,13.28,0.038,135.0
2022-01-01T02:52:03,42.805,6.029,0.044,-0.019,-0.006,102.0,101.0,100.0,13.4,1505.2,327.4,-0.8,1.8,2470.718,13.28,0.047,113.4
2022-01-01T02:55:03,42.805,6.029,0.019,-0.035,-0.022,101.0,101.0,99.0,13.3,1505.2,326.3,-0.8,1.8,2470.753,13.28,0.039,151.5
2022-01-01T02:58:03,42.805,6.029,0.032,-0.03,-0.005,101.0,101.0,100.0,13.4,1505.2,325.9,-0.8,1.8,2470.762,13.28,0.043,133.1
2022-01-01T03:04:03,42.805,6.029,0.036,-0.038,-0.017,101.0,100.0,100.0,13.4,1505.2,327.6,-0.8,1.8,2470.777,13.28,0.052,136.5
2022-01-01T03:07:03,42.805,6.029,0.005,-0.034,-0.007,101.0,101.0,100.0,13.4,1505.2,329.9,-0.8,1.8,2470.753,13.28,0.034,171.6
2022-01-01T03:10:03,42.805,6.029,0.017,0.002,0.009,101.0,101.0,99.0,13.4,1505.2,328.0,-0.7,1.8,2470.776,13.28,0.017,83.3
2022-01-01T03:13:03,42.805,6.029,0.008,-0.028,-0.028,100.0,102.0,100.0,13.4,1505.2,326.1,-0.7,1.8,2470.758,13.28,0.029,164.1
2022-01-01T03:16:03,42.805,6.029,0.027,-0.018,-0.016,100.0,101.0,101.0,13.4,1505.2,324.3,-0.8,1.8,2470.754,13.28,0.032,123.7
2022-01-01T03:19:03,42.805,6.029,0.027,-0.021,-0.011,101.0,101.0,100.0,13.3,1505.2,329.2,-0.7,1.8,2470.79,13.28,0.034,127.9
2022-01-01T03:22:03,42.805,6.029,0.008,-0.028,-0.02,101.0,101.0,100.0,13.3,1505.2,329.6,-0.8,1.8,2470.77,13.28,0.029,164.1
2022-01-01T03:25:03,42.805,6.029,0.028,-0.023,-0.014,100.0,101.0,100.0,13.4,1505.2,324.9,-0.8,1.8,2470.786,13.28,0.036,129.4
2022-01-01T03:28:03,42.805,6.029,0.014,-0.023,-0.035,101.0,102.0,100.0,13.3,1505.2,326.7,-0.8,1.8,2470.764,13.28,0.026,148.7
2022-01-01T03:31:03,42.805,6.029,0.022,-0.029,-0.016,99.0,99.0,101.0,13.4,1505.2,325.0,-0.7,1.8,2470.763,13.28,0.036,142.8
2022-01-01T03:34:03,42.805,6.029,0.012,-0.023,-0.04,98.0,100.0,101.0,13.4,1505.2,326.0,-0.7,1.8,2470.772,13.28,0.025,152.4
2022-01-01T03:37:03,42.805,6.029,0.011,-0.045,-0.061,101.0,101.0,100.0,13.4,1505.2,331.6,-0.7,1.8,2470.786,13.28,0.046,166.3
2022-01-01T03:40:03,42.805,6.029,0.047,-0.037,-0.003,101.0,100.0,100.0,13.4,1505.2,328.5,-0.7,1.8,2470.785,13.28,0.059,128.2
2022-01-01T03:43:03,42.805,6.029,0.035,-0.019,-0.006,100.0,100.0,101.0,13.3,1505.2,326.0,-0.7,1.8,2470.763,13.28,0.039,118.5
2022-01-01T03:46:03,42.805,6.029,0.016,-0.031,-0.031,101.0,100.0,100.0,13.4,1505.2,327.7,-0.8,1.8,2470.806,13.28,0.034,152.7
2022-01-01T03:49:03,42.805,6.029,0.02,-0.046,-0.04,100.0,101.0,100.0,13.4,1505.2,331.4,-0.8,1.8,2470.782,13.28,0.05,156.5
2022-01-01T03:52:03,42.805,6.029,0.007,-0.03,-0.028,101.0,101.0,100.0,13.4,1505.2,328.3,-0.7,1.8,2470.847,13.28,0.03,166.9
2022-01-01T03:55:03,42.805,6.029,0.036,-0.023,0.024,101.0,102.0,100.0,13.4,1505.2,328.2,-0.8,1.8,2470.801,13.28,0.042,122.6
2022-01-01T03:58:03,42.805,6.029,0.035,-0.028,-0.019,100.0,103.0,100.0,13.4,1505.2,325.9,-0.8,1.8,2470.829,13.28,0.044,128.7
2022-01-01T04:04:03,42.805,6.029,0.049,-0.04,-0.009,101.0,101.0,100.0,13.3,1505.2,330.2,-0.8,1.8,2470.863,13.28,0.063,129.2
2022-01-01T04:07:03,42.805,6.029,0.027,-0.031,-0.035,101.0,100.0,101.0,13.4,1505.2,328.0,-0.7,1.8,2470.822,13.28,0.041,138.9
2022-01-01T04:10:03,42.805,6.029,0.043,-0.012,0.018,101.0,102.0,99.0,13.4,1505.2,325.6,-0.8,1.8,2470.842,13.28,0.044,105.6
2022-01-01T04:13:03,42.805,6.029,0.039,-0.038,-0.032,101.0,102.0,99.0,13.4,1505.2,327.2,-0.8,1.8,2470.836,13.28,0.054,134.3
2022-01-01T04:16:03,42.805,6.029,0.025,-0.023,0.004,100.0,99.0,101.0,13.4,1505.2,326.8,-0.8,1.8,2470.813,13.28,0.033,132.6
2022-01-01T04:19:03,42.805,6.029,0.029,-0.025,-0.049,101.0,101.0,100.0,13.3,1505.2,329.3,-0.7,1.8,2470.851,13.28,0.038,130.8
2022-01-01T04:22:03,42.805,6.029,0.041,-0.016,0.004,100.0,102.0,100.0,13.4,1505.2,327.1,-0.8,1.9,2470.844,13.28,0.044,111.3
2022-01-01T04:25:03,42.805,6.029,0.042,-0.022,-0.005,102.0,101.0,99.0,13.4,1505.2,326.2,-0.8,1.8,2470.837,13.28,0.047,117.6
2022-01-01T04:28:03,42.805,6.029,0.014,-0.025,-0.02,102.0,101.0,99.0,13.4,1505.2,324.8,-0.8,1.8,2470.827,13.28,0.028,150.7
2022-01-01T04:31:03,42.805,6.029,0.033,-0.023,0.018,102.0,100.0,100.0,13.4,1505.2,326.1,-0.8,1.9,2470.862,13.28,0.04,124.9
2022-01-01T04:34:03,42.805,6.029,0.023,-0.03,-0.01,100.0,101.0,101.0,13.4,1505.2,324.6,-0.7,1.8,2470.877,13.28,0.037,142.5
2022-01-01T04:37:03,42.805,6.029,0.015,-0.009,-0.016,102.0,103.0,99.0,13.4,1505.2,331.4,-0.7,1.8,2470.876,13.28,0.017,121.0
2022-01-01T04:40:03,42.805,6.029,0.043,-0.026,-0.016,100.0,102.0,99.0,13.4,1505.2,325.6,-0.7,1.8,2470.856,13.28,0.05,121.2
2022-01-01T04:43:03,42.805,6.029,0.027,-0.025,-0.019,101.0,102.0,100.0,13.3,1505.2,325.1,-0.7,1.8,2470.874,13.28,0.036,132.8
2022-01-01T04:46:03,42.805,6.029,0.052,-0.014,-0.007,100.0,102.0,100.0,13.4,1505.2,330.0,-0.7,1.8,2470.868,13.28,0.053,105.1
2022-01-01T04:49:03,42.805,6.029,0.027,-0.015,-0.006,102.0,100.0,100.0,13.4,1505.2,328.0,-0.8,1.9,2470.881,13.28,0.03,119.1
2022-01-01T04:52:03,42.805,6.029,0.039,-0.03,-0.046,100.0,101.0,100.0,13.4,1505.2,330.1,-0.8,1.8,2470.854,13.28,0.049,127.6
2022-01-01T04:55:03,42.805,6.029,0.027,-0.036,0.005,101.0,100.0,100.0,13.4,1505.2,324.7,-0.8,1.8,2470.829,13.28,0.045,143.1
2022-01-01T04:58:03,42.805,6.029,0.016,-0.005,0.007,101.0,101.0,100.0,13.4,1505.2,328.5,-0.7,1.8,2470.872,13.28,0.016,107.4
2022-01-01T05:04:03,42.805,6.029,0.037,-0.012,0.016,100.0,101.0,100.0,13.3,1505.2,324.9,-0.8,1.8,2470.919,13.28,0.038,108.0
2022-01-01T05:07:03,42.805,6.029,0.013,-0.04,-0.015,101.0,100.0,101.0,13.4,1505.2,328.5,-0.8,1.9,2470.856,13.28,0.042,162.0
2022-01-01T05:10:03,42.805,6.029,0.034,-0.031,-0.012,99.0,102.0,100.0,13.4,1505.2,330.7,-0.8,1.8,2470.855,13.28,0.046,132.4
2022-01-01T05:13:03,42.805,6.029,0.01,-0.014,-0.006,100.0,102.0,100.0,13.4,1505.2,327.4,-0.8,1.8,2470.925,13.28,0.017,144.5
2022-01-01T05:16:03,42.805,6.029,0.038,-0.033,-0.045,101.0,102.0,100.0,13.4,1505.2,331.1,-0.8,1.9,2470.909,13.28,0.05,131.0
2022-01-01T05:19:03,42.805,6.029,0.024,-0.009,-0.014,102.0,100.0,100.0,13.4,1505.2,329.2,-0.7,1.8,2470.891,13.28,0.025,110.6
2022-01-01T05:22:03,42.805,6.029,0.045,-0.029,0.0,101.0,101.0,100.0,13.4,1505.2,329.8,-0.8,1.8,2470.871,13.28,0.053,122.8
2022-01-01T05:25:03,42.805,6.029,0.032,-0.044,-0.032,100.0,99.0,101.0,13.4,1505.2,328.4,-0.7,1.8,2470.823,13.28,0.054,144.0
2022-01-01T05:28:03,42.805,6.029,0.033,-0.02,-0.004,101.0,101.0,100.0,13.4,1505.2,328.2,-0.8,1.9,2470.891,13.28,0.038,121.2
2022-01-01T05:31:03,42.805,6.029,0.022,-0.017,-0.009,102.0,99.0,100.0,13.4,1505.2,326.3,-0.8,1.8,2470.843,13.28,0.027,127.7
2022-01-01T05:34:03,42.805,6.029,0.026,-0.031,-0.01,101.0,101.0,100.0,13.4,1505.2,330.9,-0.8,1.8,2470.857,13.28,0.04,140.0
2022-01-01T05:37:03,42.805,6.029,0.037,-0.035,-0.012,100.0,101.0,100.0,13.4,1505.2,325.9,-0.7,1.8,2470.869,13.28,0.05,133.4
2022-01-01T05:40:03,42.805,6.029,0.003,-0.027,-0.006,102.0,101.0,99.0,13.4,1505.2,329.3,-0.7,1.8,2470.888,13.28,0.027,173.7
2022-01-01T05:43:03,42.805,6.029,0.049,-0.056,-0.001,100.0,100.0,101.0,13.3,1505.2,328.7,-0.7,1.8,2470.885,13.28,0.074,138.8
2022-01-01T05:46:03,42.805,6.029,0.043,-0.046,-0.04,101.0,100.0,101.0,13.4,1505.2,329.1,-0.7,1.8,2470.872,13.28,0.062,136.9
2022-01-01T05:49:03,42.805,6.029,0.023,-0.036,-0.042,101.0,100.0,100.0,13.4,1505.2,327.7,-0.7,1.8,2470.885,13.28,0.042,147.4
2022-01-01T05:52:03,42.805,6.029,0.032,-0.023,-0.035,101.0,101.0,100.0,13.4,1505.2,328.6,-0.8,1.8,2470.877,13.28,0.039,125.7
2022-01-01T05:55:03,42.805,6.029,0.039,-0.029,-0.032,102.0,100.0,99.0,13.4,1505.2,326.5,-0.7,1.8,2470.898,13.28,0.048,126.6
2022-01-01T05:58:03,42.805,6.029,0.023,-0.015,-0.021,102.0,101.0,100.0,13.3,1505.2,329.0,-0.8,1.8,2470.873,13.28,0.027,123.1
2022-01-01T06:04:03,42.805,6.029,0.047,-0.037,-0.005,101.0,100.0,100.0,13.3,1505.2,328.0,-0.8,1.9,2470.911,13.28,0.059,128.2
2022-01-01T06:07:03,42.805,6.029,0.026,-0.045,-0.012,102.0,100.0,100.0,13.4,1505.2,329.3,-0.7,1.8,2470.886,13.28,0.051,150.0
2022-01-01T06:10:03,42.805,6.029,0.055,-0.024,-0.002,101.0,100.0,100.0,13.4,1505.2,325.8,-0.8,1.8,2470.905,13.28,0.06,113.6
2022-01-01T06:13:03,42.805,6.029,0.037,-0.047,-0.019,100.0,101.0,100.0,13.4,1505.2,330.5,-0.7,1.8,2470.846,13.28,0.059,141.8
2022-01-01T06:16:03,42.805,6.029,0.035,-0.038,-0.023,100.0,101.0,99.0,13.4,1505.2,327.1,-0.8,1.8,2470.838,13.28,0.051,137.4
2022-01-01T06:19:03,42.805,6.029,0.038,-0.013,0.012,100.0,103.0,99.0,13.3,1505.2,331.6,-0.7,1.8,2470.867,13.28,0.04,108.9
2022-01-01T06:22:03,42.805,6.029,0.034,-0.028,-0.006,99.0,100.0,100.0,13.4,1505.2,324.0,-0.8,1.8,2470.872,13.28,0.044,129.5
2022-01-01T06:25:03,42.805,6.029,0.026,-0.036,-0.012,99.0,100.0,101.0,13.4,1505.2,326.7,-0.7,1.8,2470.862,13.28,0.044,144.2
2022-01-01T06:28:03,42.805,6.029,0.031,-0.054,-0.048,101.0,101.0,100.0,13.4,1505.2,324.0,-0.8,1.8,2470.926,13.28,0.062,150.1
2022-01-01T06:31:03,42.805,6.029,0.021,-0.047,-0.043,100.0,101.0,100.0,13.3,1505.2,328.4,-0.7,1.8,2470.886,13.28,0.051,155.9
2022-01-01T06:34:03,42.805,6.029,0.013,-0.024,-0.022,101.0,101.0,99.0,13.4,1505.2,330.2,-0.8,1.8,2470.894,13.28,0.027,151.6
2022-01-01T06:37:03,42.805,6.029,0.036,-0.026,-0.008,101.0,100.0,100.0,13.4,1505.2,329.9,-0.8,1.8,2470.886,13.28,0.044,125.8
2022-01-01T06:40:03,42.805,6.029,0.019,-0.023,-0.032,101.0,100.0,101.0,13.4,1505.2,328.8,-0.8,1.8,2470.88,13.28,0.029,140.4
2022-01-01T06:43:03,42.805,6.029,0.027,-0.031,0.008,101.0,100.0,100.0,13.4,1505.2,328.0,-0.8,1.9,2470.894,13.28,0.041,138.9
2022-01-01T06:46:03,42.805,6.029,0.022,-0.023,-0.009,102.0,101.0,100.0,13.3,1505.2,329.3,-0.8,1.9,2470.851,13.28,0.031,136.3
2022-01-01T06:49:03,42.805,6.029,0.035,-0.056,-0.019,100.0,100.0,100.0,13.3,1505.2,326.6,-0.7,1.8,2470.859,13.28,0.066,148.0
2022-01-01T06:52:03,42.805,6.029,0.026,-0.028,-0.013,101.0,101.0,100.0,13.3,1505.2,329.5,-0.8,1.8,2470.862,13.28,0.038,137.1
2022-01-01T06:55:03,42.805,6.029,-0.002,-0.023,-0.038,101.0,99.0,101.0,13.3,1505.2,332.0,-0.7,1.8,2470.843,13.28,0.023,185.0
2022-01-01T06:58:03,42.805,6.029,0.03,-0.029,0.01,101.0,101.0,99.0,13.4,1505.2,323.9,-0.7,1.8,2470.844,13.28,0.041,134.0
2022-01-01T07:04:03,42.805,6.029,0.017,-0.038,-0.027,100.0,100.0,100.0,13.4,1505.2,328.1,-0.7,1.8,2470.863,13.28,0.041,155.9
2022-01-01T07:07:03,42.805,6.029,0.034,-0.024,0.025,101.0,101.0,99.0,13.4,1505.2,325.0,-0.8,1.8,2470.841,13.28,0.041,125.2
2022-01-01T07:10:03,42.805,6.029,0.027,-0.046,-0.023,101.0,100.0,100.0,13.4,1505.2,328.1,-0.7,1.8,2470.885,13.28,0.053,149.6
2022-01-01T07:13:03,42.805,6.029,0.026,-0.031,-0.021,101.0,100.0,100.0,13.4,1505.2,331.3,-0.7,1.8,2470.864,13.28,0.04,140.0
2022-01-01T07:16:03,42.805,6.029,0.024,-0.039,-0.038,101.0,100.0,100.0,13.4,1505.2,328.7,-0.8,1.8,2470.839,13.28,0.045,148.4
2022-01-01T07:19:03,42.805,6.029,0.024,-0.037,-0.01,101.0,101.0,101.0,13.4,1505.2,328.0,-0.7,1.8,2470.845,13.28,0.044,147.0
2022-01-01T07:22:03,42.805,6.029,0.009,-0.044,-0.032,101.0,101.0,100.0,13.4,1505.2,327.6,-0.8,1.8,2470.837,13.28,0.044,168.4
2022-01-01T07:25:03,42.805,6.029,0.03,-0.032,-0.018,102.0,100.0,100.0,13.3,1505.2,327.8,-0.8,1.8,2470.855,13.28,0.043,136.9
2022-01-01T07:28:03,42.805,6.029,0.017,-0.043,-0.004,100.0,101.0,100.0,13.4,1505.2,327.5,-0.7,1.8,2470.868,13.28,0.046,158.4
2022-01-01T07:31:03,42.805,6.029,0.028,-0.019,0.006,100.0,100.0,100.0,13.3,1505.2,324.8,-0.7,1.8,2470.86,13.28,0.033,124.2
2022-01-01T07:34:03,42.805,6.029,0.029,-0.025,-0.019,100.0,101.0,101.0,13.4,1505.2,327.9,-0.8,1.8,2470.87,13.28,0.038,130.8
2022-01-01T07:37:03,42.805,6.029,0.023,-0.024,-0.001,100.0,101.0,101.0,13.4,1505.2,329.2,-0.7,1.8,2470.853,13.28,0.033,136.2
2022-01-01T07:40:03,42.805,6.029,0.057,-0.055,-0.051,101.0,101.0,99.0,13.3,1505.2,325.8,-0.7,1.8,2470.859,13.28,0.079,134.0
2022-01-01T07:43:03,42.805,6.029,0.036,-0.031,-0.023,102.0,100.0,101.0,13.3,1505.2,324.0,-0.8,1.8,2470.892,13.28,0.047,130.7
2022-01-01T07:46:03,42.805,6.029,0.047,-0.041,-0.026,101.0,101.0,102.0,13.4,1505.2,326.8,-0.7,1.8,2470.853,13.28,0.062,131.1
2022-01-01T07:49:03,42.805,6.029,0.035,-0.045,-0.017,101.0,101.0,99.0,13.3,1505.2,326.4,-0.7,1.9,2470.866,13.28,0.057,142.1
2022-01-01T07:52:03,42.805,6.029,0.046,-0.057,-0.034,100.0,100.0,100.0,13.3,1505.2,330.1,-0.8,1.8,2470.88,13.28,0.073,141.1
2022-01-01T07:55:03,42.805,6.029,0.021,-0.037,-0.035,100.0,100.0,100.0,13.4,1505.2,328.7,-0.8,1.8,2470.8,13.28,0.042,150.4
2022-01-01T07:58:03,42.805,6.029,0.05,-0.048,-0.003,100.0,100.0,100.0,13.4,1505.2,324.9,-0.7,1.8,2470.818,13.28,0.069,133.8
2022-01-01T08:04:03,42.805,6.029,0.051,-0.022,0.005,99.0,102.0,99.0,13.4,1505.2,324.0,-0.8,1.8,2470.888,13.28,0.055,113.3
2022-01-01T08:07:03,42.805,6.029,0.036,-0.041,-0.02,100.0,100.0,101.0,13.4,1505.2,328.7,-0.7,1.8,2470.856,13.28,0.054,138.7
2022-01-01T08:10:03,42.805,6.029,0.043,-0.036,-0.039,101.0,99.0,101.0,13.3,1505.2,330.6,-0.8,1.8,2470.836,13.28,0.056,129.9
2022-01-01T08:13:03,42.805,6.029,0.028,-0.041,-0.025,102.0,101.0,100.0,13.4,1505.2,324.1,-0.7,1.8,2470.869,13.28,0.049,145.7
2022-01-01T08:16:03,42.805,6.029,0.022,-0.041,-0.016,100.0,101.0,100.0,13.4,1505.2,326.0,-0.8,1.8,2470.854,13.28,0.046,151.8
2022-01-01T08:19:03,42.805,6.029,0.033,-0.044,-0.014,100.0,100.0,100.0,13.4,1505.2,331.9,-0.7,1.8,2470.884,13.28,0.055,143.1
2022-01-01T08:22:03,42.805,6.029,0.018,-0.036,-0.01,100.0,101.0,100.0,13.3,1505.2,324.7,-0.8,1.8,2470.852,13.28,0.04,153.4
2022-01-01T08:25:03,42.805,6.029,0.043,-0.036,0.003,101.0,101.0,100.0,13.3,1505.2,327.6,-0.8,1.8,2470.819,13.28,0.056,129.9
2022-01-01T08:28:03,42.805,6.029,0.03,-0.039,-0.02,102.0,100.0,100.0,13.4,1505.2,331.3,-0.8,1.8,2470.842,13.28,0.049,142.4
2022-01-01T08:31:03,42.805,6.029,0.015,-0.027,-0.022,101.0,100.0,100.0,13.4,1505.2,329.1,-0.7,1.8,2470.81,13.28,0.03,150.9
2022-01-01T08:34:03,42.805,6.029,0.046,-0.058,-0.042,100.0,101.0,100.0,13.4,1505.2,326.0,-0.8,1.9,2470.85,13.28,0.074,141.6
2022-01-01T08:37:03,42.805,6.029,0.036,-0.039,-0.035,100.0,101.0,100.0,13.4,1505.2,326.3,-0.7,1.8,2470.797,13.28,0.053,137.3
2022-01-01T08:40:03,42.805,6.029,0.03,-0.055,0.001,101.0,101.0,101.0,13.4,1505.2,328.7,-0.7,1.8,2470.831,13.28,0.062,151.4
2022-01-01T08:43:03,42.805,6.029,0.015,-0.031,0.012,101.0,101.0,100.0,13.4,1505.2,326.0,-0.7,1.8,2470.83,13.28,0.034,154.2
2022-01-01T08:46:03,42.805,6.029,0.033,-0.037,-0.005,101.0,101.0,100.0,13.3,1505.2,331.9,-0.7,1.8,2470.856,13.28,0.049,138.3
2022-01-01T08:49:03,42.805,6.029,0.003,-0.029,-0.03,101.0,100.0,100.0,13.4,1505.2,325.6,-0.8,1.8,2470.805,13.28,0.029,174.1
2022-01-01T08:52:03,42.805,6.029,0.032,-0.01,0.0,101.0,100.0,100.0,13.4,1505.2,328.3,-0.8,1.8,2470.834,13.28,0.033,107.4
2022-01-01T08:55:03,42.805,6.029,0.025,-0.043,-0.003,101.0,100.0,101.0,13.4,1505.2,330.2,-0.8,1.9,2470.824,13.28,0.049,149.8
2022-01-01T08:58:03,42.805,6.029,0.024,-0.046,-0.002,100.0,101.0,100.0,13.3,1505.2,330.6,-0.7,1.8,2470.85,13.28,0.051,152.4
2022-01-01T09:04:03,42.805,6.029,0.036,-0.039,-0.021,101.0,100.0,100.0,13.3,1505.2,327.6,-0.8,1.8,2470.871,13.28,0.053,137.3
2022-01-01T09:07:03,42.805,6.029,0.046,-0.065,-0.032,103.0,99.0,99.0,13.4,1505.2,325.2,-0.7,1.8,2470.835,13.28,0.079,144.7
2022-01-01T09:10:03,42.805,6.029,0.012,-0.041,-0.027,102.0,100.0,100.0,13.3,1505.2,327.6,-0.8,1.8,2470.812,13.28,0.042,163.7
2022-01-01T09:13:03,42.805,6.029,0.028,-0.041,-0.017,101.0,101.0,100.0,13.3,1505.2,331.4,-0.7,1.8,2470.795,13.28,0.049,145.7
2022-01-01T09:16:03,42.805,6.029,0.055,-0.029,0.001,101.0,100.0,100.0,13.3,1505.2,327.1,-0.7,1.8,2470.85,13.28,0.062,117.8
2022-01-01T09:19:03,42.805,6.029,0.017,-0.046,-0.019,103.0,100.0,99.0,13.4,1505.2,328.6,-0.7,1.8,2470.821,13.28,0.049,159.7
2022-01-01T09:22:03,42.805,6.029,0.011,-0.014,0.004,101.0,100.0,100.0,13.4,1505.2,324.4,-0.8,1.9,2470.79,13.28,0.017,141.8
2022-01-01T09:25:03,42.805,6.029,0.026,-0.036,-0.001,102.0,100.0,101.0,13.4,1505.2,326.3,-0.7,1.8,2470.807,13.28,0.044,144.2
2022-01-01T09:28:03,42.805,6.029,0.027,-0.044,-0.022,101.0,100.0,100.0,13.4,1505.2,331.0,-0.7,1.8,2470.795,13.28,0.051,148.5
2022-01-01T09:31:03,42.805,6.029,0.059,-0.05,0.001,101.0,101.0,100.0,13.3,1505.2,323.9,-0.7,1.8,2470.775,13.28,0.077,130.3
2022-01-01T09:34:03,42.805,6.029,0.024,-0.049,-0.034,102.0,99.0,100.0,13.4,1505.2,327.7,-0.8,1.8,2470.815,13.28,0.054,153.9
2022-01-01T09:37:03,42.805,6.029,0.043,-0.042,-0.001,100.0,101.0,101.0,13.4,1505.2,329.0,-0.7,1.8,2470.778,13.28,0.06,134.3
2022-01-01T09:40:03,42.805,6.029,0.051,-0.04,-0.012,102.0,101.0,99.0,13.3,1505.2,328.2,-0.8,1.8,2470.816,13.28,0.064,128.1
2022-01-01T09:43:03,42.805,6.029,0.041,-0.028,0.004,101.0,101.0,100.0,13.4,1505.2,325.9,-0.8,1.9,2470.819,13.28,0.049,124.3
2022-01-01T09:46:03,42.805,6.029,0.027,-0.053,-0.015,101.0,101.0,100.0,13.3,1505.2,325.3,-0.8,1.8,2470.793,13.28,0.059,153.0
2022-01-01T09:49:03,42.805,6.029,0.023,-0.056,-0.066,102.0,102.0,100.0,13.4,1505.2,326.6,-0.8,1.8,2470.797,13.28,0.06,157.7
2022-01-01T09:52:03,42.805,6.029,0.009,-0.04,-0.009,101.0,102.0,99.0,13.4,1505.2,327.1,-0.8,1.8,2470.821,13.28,0.041,167.3
2022-01-01T09:55:03,42.805,6.029,0.024,-0.053,-0.045,101.0,101.0,100.0,13.3,1505.2,328.5,-0.7,1.8,2470.812,13.28,0.058,155.6